Flag for Lebanon Weather past 2 weeks in Sidon, Lebanon

Now
81 °F

Passing clouds.


Feels Like: 83 °F
Forecast: 71 / 85 °F
Wind: 3 mph from Northwest

Location: Beirut Airport

Current Time: Aug 20, 2014 at 10:24:54 PM

Latest Report: Aug 20, 2014 at 10:00 PM


Visibility: N/A

Pressure: 29.95 "Hg

Humidity: 66%

Dew point: 68 °F

Location of SidonLocation

Historic Weather in Sidon — Graph

°F

Sidon temperature yesterday

Maximum temperature yesterday: 88 °F (at 12:00 PM)
Minimum temperature yesterday: 81 °F (at 1:00 AM)
Average temperature yesterday: 83 °F

Past Weeks' High & Low Weather Summary

 TemperatureHumidityPressure
High88 °F (Aug 9, 12:00 PM)84% (Aug 7, 12:00 AM)29.98 "Hg (Aug 7, 12:00 AM)
Low77 °F (Aug 8, 5:00 AM)48% (Aug 9, 7:00 AM)29.62 "Hg (Aug 18, 3:00 AM)
Average83 °F69%29.79 "Hg
* Reported Aug 5 9:00 PM — Aug 20 9:00 PM, Sidon, Weather by CustomWeather, © 2014

Note: Actual official high and low records may vary slightly from our data, if they occured in-between our weather recording intervals... More about our weather records

Advertising

Sidon weather history for previous 24 hours

 ConditionsComfort  
Time TempWeatherWind HumidityBarometerVisibility
9:00 PM
Aug 20
81 °FPassing clouds.3 mph66%29.95 "HgN/A
8:00 PM82 °FPassing clouds.3 mph62%29.92 "HgN/A
7:00 PM82 °FPassing clouds.6 mph62%29.92 "HgN/A
6:00 PM84 °FPassing clouds.6 mph58%29.92 "HgN/A
5:00 PM86 °FPassing clouds.8 mph59%29.92 "HgN/A
4:00 PM86 °FPassing clouds.9 mph59%29.95 "HgN/A
3:00 PM86 °FSunny.8 mph59%29.95 "HgN/A
2:00 PM86 °FSunny.9 mph55%29.95 "HgN/A
1:00 PM86 °FPassing clouds.9 mph55%29.95 "HgN/A
12:00 PM86 °FSunny.9 mph55%29.98 "Hg10 mi
11:00 AM86 °FPassing clouds.10 mph55%29.98 "HgN/A
10:00 AM84 °FPassing clouds.10 mph58%29.98 "HgN/A
9:00 AM82 °FPassing clouds.9 mph62%29.95 "HgN/A
8:00 AM81 °FPassing clouds.6 mph66%29.95 "HgN/A
7:00 AM77 °FPassing clouds.5 mph74%29.95 "Hg5 mi
6:00 AM79 °FPassing clouds.3 mph70%29.92 "Hg5 mi
5:00 AM79 °FPassing clouds.6 mph74%29.92 "Hg5 mi
4:00 AM79 °FPassing clouds.7 mph74%29.92 "Hg5 mi
3:00 AM79 °FPassing clouds.3 mph74%29.92 "Hg5 mi
2:00 AM79 °FPassing clouds.3 mph74%29.92 "Hg5 mi
1:00 AM79 °FPassing clouds.3 mph74%29.92 "Hg5 mi
12:00 AM79 °FPassing clouds.6 mph74%29.92 "Hg4 mi
11:00 PM
Aug 19
81 °FPassing clouds.6 mph70%29.92 "Hg5 mi
10:00 PM81 °FPassing clouds.7 mph74%29.92 "Hg5 mi
Weather by CustomWeather, © 2014

See weather overviewHow to use our weather pages